{"data":{"norad_id":50321,"epoch":"2026-05-24T11:00:44.582112Z","epoch_age_seconds":121328,"freshness":"FRESH","line1":"1 50321U 21129A   26144.45884933 -.00000087  00000+0  00000+0 0  9991","line2":"2 50321   3.6157  80.2207 0003851 284.4923 122.5746  1.00037720 16265","mean_motion":1.0003772,"eccentricity":0.0003851,"inclination_deg":3.6157,"raan_deg":80.2207,"arg_perigee_deg":284.4923,"mean_anomaly_deg":122.5746,"bstar":0,"rev_number":1626,"period_min":1439.4570368057,"perigee_km":35836.076827923,"apogee_km":35868.602741143,"semimajor_km":42230.476784533,"source":"CELESTRAK","updated_at":"2026-05-25T13:38:14.105879Z"}}